Tracking 29892 objects as of 21-Nov-2024
HD Live streaming from Space Station
objects crossing your sky now

FENGYUN 1C DEB

Track FENGYUN 1C DEB now!
10-day predictions


NORAD ID: 31536
Int'l Code: 1999-025BYB
Perigee: 518.5 km
Apogee: 984.4 km
Inclination: 98.3 °
Period: 99.7 minutes
Semi major axis: 7122 km
RCS: 0.0129 m2 (small)
Launch date: May 10, 1999
Source: People's Republic of China (PRC)
Launch site: Taiyaun Space Center, China (TSC)

Note: This is SATELLITE DEBRIS
Your satellite tracking list
Your tracking list is empty




NASA's NSSDC Master Catalog

Two Line Element Set (TLE):
1 31536U 99025BYB 24324.19742374  .00015500  00000-0  23330-2 0  9999
2 31536  98.2541 233.5123 0327095 257.1221  99.3249 14.44297340906766
Source of the keplerian elements: AFSPC